| time (UTC) | temp C | wind direction | speed KPH | gust KPH | rain 1hr cm | rain 24hr cm | rain mn cm | humidity % | barometer mb |
| 20260504050024 | 3 | 331 | 0.0 | 0.0 | 0.00 | 0.00 | 0.00 | 85 | 1014.1 |
| 20260504044524 | 3 | 331 | 0.0 | 0.0 | 0.00 | 0.00 | 0.00 | 83 | 1014.0 |
| 20260504043030 | 3 | 331 | 0.0 | 0.0 | 0.00 | 0.00 | 0.00 | 83 | 1014.0 |
| 20260504041521 | 3 | 331 | 0.0 | 0.0 | 0.00 | 0.00 | 0.00 | 82 | 1013.8 |
| 20260504040018 | 3 | 331 | 0.0 | 0.0 | 0.00 | 0.00 | 0.00 | 81 | 1013.8 |
| 20260504034513 | 4 | 331 | 0.0 | 0.0 | 0.00 | 0.00 | 0.00 | 79 | 1013.9 |
| 20260504033014 | 4 | 331 | 0.0 | 0.0 | 0.00 | 0.00 | 0.00 | 78 | 1013.8 |
| 20260504031510 | 5 | 331 | 0.0 | 0.0 | 0.00 | 0.00 | 0.00 | 76 | 1013.9 |
| 20260504030012 | 5 | 331 | 0.0 | 0.0 | 0.00 | 0.00 | 0.00 | 74 | 1013.7 |
| 20260504024505 | 5 | 331 | 0.0 | 0.0 | 0.00 | 0.00 | 0.00 | 73 | 1013.8 |
| 20260504023003 | 5 | 331 | 0.0 | 0.0 | 0.00 | 0.00 | 0.00 | 70 | 1013.8 |
| 20260504021501 | 6 | 331 | 0.0 | 0.0 | 0.00 | 0.00 | 0.00 | 68 | 1013.7 |
| 20260504020100 | 6 | 331 | 0.0 | 0.0 | 0.00 | 0.00 | 0.00 | 67 | 1013.7 |
| 20260504014559 | 7 | 331 | 0.0 | 0.0 | 0.00 | 0.00 | 0.00 | 64 | 1013.6 |
| 20260504013116 | 7 | 331 | 0.0 | 0.0 | 0.00 | 0.00 | 0.00 | 59 | 1013.5 |
| 20260504011557 | 8 | 331 | 0.0 | 0.0 | 0.00 | 0.00 | 0.00 | 55 | 1013.4 |
| 20260504010101 | 8 | 331 | 0.0 | 0.0 | 0.00 | 0.00 | 0.00 | 51 | 1013.1 |
| 20260504004606 | 9 | 331 | 0.0 | 0.0 | 0.00 | 0.00 | 0.00 | 50 | 1012.9 |
| 20260504003053 | 10 | 331 | 0.0 | 0.0 | 0.00 | 0.00 | 0.00 | 50 | 1012.7 |
| 20260504001552 | 11 | 331 | 0.0 | 0.0 | 0.00 | 0.00 | 0.00 | 50 | 1012.4 |
| 20260504000056 | 11 | 331 | 0.0 | 0.0 | 0.00 | 0.00 | 0.00 | 52 | 1012.3 |
| 20260503234551 | 12 | 331 | 0.0 | 0.0 | 0.00 | 0.00 | 0.00 | 52 | 1012.0 |
| 20260503233052 | 13 | 331 | 0.0 | 3.2 | 0.00 | 0.00 | 0.00 | 35 | 1011.8 |
| 20260503231549 | 13 | 57 | 0.0 | 1.6 | 0.00 | 0.00 | 0.00 | 36 | 1011.7 |
| 20260503230055 | 13 | 92 | 0.0 | 3.2 | 0.00 | 0.00 | 0.00 | 35 | 1011.5 |
| 20260503224549 | 13 | 116 | 0.0 | 4.8 | 0.00 | 0.00 | 0.00 | 31 | 1011.4 |
| 20260503223049 | 13 | 115 | 0.0 | 8.0 | 0.00 | 0.00 | 0.00 | 32 | 1011.4 |
| 20260503221546 | 13 | 11 | 1.6 | 8.0 | 0.00 | 0.00 | 0.00 | 33 | 1011.4 |
| 20260503220047 | 13 | 284 | 0.0 | 14.5 | 0.00 | 0.00 | 0.00 | 31 | 1011.3 |
| 20260503214547 | 14 | 285 | 1.6 | 11.3 | 0.00 | 0.00 | 0.00 | 32 | 1011.3 |
| 20260503213046 | 13 | 265 | 1.6 | 9.7 | 0.00 | 0.00 | 0.00 | 36 | 1011.1 |
| 20260503211544 | 13 | 5 | 1.6 | 9.7 | 0.00 | 0.00 | 0.00 | 30 | 1011.2 |
| 20260503210044 | 13 | 274 | 3.2 | 30.6 | 0.00 | 0.00 | 0.00 | 33 | 1011.3 |
| 20260503204542 | 13 | 69 | 1.6 | 6.4 | 0.00 | 0.00 | 0.00 | 32 | 1011.2 |
| 20260503203049 | 13 | 61 | 1.6 | 8.0 | 0.00 | 0.00 | 0.00 | 33 | 1011.3 |
| 20260503201543 | 14 | 22 | 1.6 | 12.9 | 0.00 | 0.00 | 0.00 | 34 | 1011.3 |
| 20260503200037 | 13 | 33 | 3.2 | 24.1 | 0.00 | 0.00 | 0.00 | 33 | 1011.1 |
| 20260503194534 | 13 | 27 | 1.6 | 8.0 | 0.00 | 0.00 | 0.00 | 36 | 1011.5 |
| 20260503193033 | 13 | 69 | 1.6 | 14.5 | 0.00 | 0.00 | 0.00 | 40 | 1011.6 |
| 20260503191537 | 13 | 76 | 3.2 | 9.7 | 0.00 | 0.00 | 0.00 | 38 | 1011.7 |
| 20260503190035 | 13 | 355 | 3.2 | 9.7 | 0.00 | 0.00 | 0.00 | 36 | 1011.9 |
| 20260503184529 | 13 | 61 | 1.6 | 16.1 | 0.00 | 0.00 | 0.00 | 42 | 1012.1 |
| 20260503183029 | 12 | 282 | 1.6 | 17.7 | 0.00 | 0.00 | 0.00 | 36 | 1012.1 |
| 20260503181528 | 12 | 46 | 1.6 | 14.5 | 0.00 | 0.00 | 0.00 | 37 | 1012.2 |
| 20260503180040 | 12 | 266 | 0.0 | 16.1 | 0.00 | 0.00 | 0.00 | 41 | 1012.0 |
| 20260503174528 | 12 | 286 | 3.2 | 14.5 | 0.00 | 0.00 | 0.00 | 37 | 1012.1 |
| 20260503173027 | 13 | 40 | 4.8 | 12.9 | 0.00 | 0.00 | 0.00 | 35 | 1012.0 |
| 20260503171526 | 12 | 267 | 1.6 | 11.3 | 0.00 | 0.00 | 0.00 | 37 | 1012.2 |
| 20260503081537 | 6 | 26 | 0.0 | 8.0 | 0.00 | 0.13 | 0.00 | 62 | 1012.0 |
| 20260503071530 | 7 | 13 | 0.0 | 3.2 | 0.00 | 0.13 | 0.00 | 59 | 1011.9 |
| 20260503054518 | 8 | 265 | 0.0 | 3.2 | 0.00 | 0.13 | 0.00 | 56 | 1012.3 |
| 20260503053014 | 8 | 265 | 0.0 | 4.8 | 0.00 | 0.13 | 0.00 | 56 | 1012.5 |